Location: Bas-Clignon
(44.2000°N, 6.6333°E)
Time: 18:22:52
(UTC+00:00)

Okean O Rocket - Visible Passes

Search period start: 01 October 2023 00:00
Search period end: 11 October 2023 00:00
Orbit: 621 x 640 km, 98.1° (Epoch: 01 October)

Date Brightness Start Highest point End Pass type
(mag) Time Alt. Az. Time Alt. Az. Time Alt. Az.
01 Oct 1.6 18:57:31 35° SE 18:59:12 63° ENE 19:03:37 10° N visible
01 Oct 4.4 20:34:55 13° WSW 20:35:55 13° W 20:38:05 10° WNW visible
02 Oct 3.5 17:42:20 10° E 17:44:07 12° ENE 17:45:54 10° NE visible
02 Oct 1.6 19:18:32 47° S 19:19:46 80° WSW 19:24:14 10° NNW visible
03 Oct 3.1 18:02:09 13° E 18:04:26 19° ENE 18:07:32 10° NNE visible
03 Oct 2.4 19:39:33 42° SW 19:40:23 48° W 19:44:42 10° NNW visible
04 Oct 2.5 18:23:10 22° ESE 18:24:50 28° ENE 18:28:39 10° N visible
04 Oct 3.3 20:00:34 29° WSW 20:01:03 30° W 20:04:58 10° NW visible
05 Oct 1.9 18:44:10 37° ESE 18:45:16 45° ENE 18:49:31 10° N visible
05 Oct 4.0 20:21:33 19° W 20:21:47 19° W 20:24:56 10° NW visible
06 Oct 1.5 19:05:10 62° SE 19:05:47 73° ENE 19:10:13 10° N visible
06 Oct 4.6 20:42:34 11° W 20:42:35 11° W 20:44:04 10° WNW visible
07 Oct 3.4 17:48:46 11° E 17:50:36 14° ENE 17:52:53 10° NNE visible
07 Oct 1.8 19:26:10 68° WSW 19:26:21 69° WSW 19:30:47 10° NNW visible
08 Oct 2.9 18:09:47 19° E 18:10:57 21° ENE 18:14:17 10° NNE visible
08 Oct 2.8 19:47:10 41° W 19:47:10 41° W 19:51:12 10° NNW visible
09 Oct 2.3 18:30:47 31° E 18:31:21 32° ENE 18:35:18 10° N visible
09 Oct 3.7 20:08:10 25° W 20:08:10 25° W 20:11:23 10° NW visible
10 Oct 1.7 18:51:47 52° ENE 18:51:48 52° ENE 18:56:07 10° N visible
10 Oct 4.4 20:29:11 16° WNW 20:29:11 16° WNW 20:31:11 10° NW visible
